KLM342 LFML-LEMH

Flight info

Callsign KLM342
Flight time 0h 45m
Altitude 31000
Route VATIR N852 VERSO L16 SARGO
Aircraft B738/M-SDE2E3FGHIR/S

Departure

Time 2026-04-25 10:45
Airport Marseille Provence Airport (LFML)

Arrival

Time 2026-04-25 11:30
Airport Menorca Airport (LEMH)
Time Latitude Longitude Altitude Speed Heading
2026-04-25 10:28 43.44147 5.22011 81 ft 0 kts 50°
2026-04-25 10:33 43.44142 5.22004 81 ft 2 kts 50°
2026-04-25 10:34 43.44131 5.21985 81 ft 3 kts 53°
2026-04-25 10:34 43.44122 5.21961 81 ft 3 kts 74°
2026-04-25 10:34 43.44120 5.21933 81 ft 3 kts 95°
2026-04-25 10:34 43.44124 5.21906 81 ft 3 kts 114°
2026-04-25 10:35 43.44128 5.21896 81 ft 0 kts 120°
2026-04-25 10:35 43.44127 5.21899 81 ft 2 kts 121°
2026-04-25 10:36 43.44108 5.21932 81 ft 7 kts 132°
2026-04-25 10:36 43.44065 5.21990 81 ft 11 kts 135°
2026-04-25 10:36 43.44006 5.22072 81 ft 12 kts 131°
2026-04-25 10:36 43.43954 5.22154 81 ft 8 kts 131°
2026-04-25 10:37 43.43913 5.22203 81 ft 8 kts 159°
2026-04-25 10:37 43.43859 5.22170 81 ft 10 kts 230°
2026-04-25 10:37 43.43827 5.22107 81 ft 6 kts 238°
2026-04-25 10:37 43.43800 5.22054 81 ft 7 kts 231°
2026-04-25 10:38 43.43757 5.22028 81 ft 7 kts 169°
2026-04-25 10:38 43.43712 5.22055 81 ft 7 kts 151°
2026-04-25 10:38 43.43668 5.22089 81 ft 8 kts 150°
2026-04-25 10:38 43.43607 5.22137 81 ft 13 kts 150°
2026-04-25 10:39 43.43519 5.22209 81 ft 12 kts 149°
2026-04-25 10:39 43.43448 5.22259 81 ft 7 kts 155°
2026-04-25 10:39 43.43403 5.22280 81 ft 8 kts 168°
2026-04-25 10:39 43.43348 5.22307 81 ft 8 kts 142°
2026-04-25 10:40 43.43307 5.22362 81 ft 8 kts 131°
2026-04-25 10:40 43.43262 5.22430 81 ft 11 kts 133°
2026-04-25 10:40 43.43210 5.22500 81 ft 10 kts 136°
2026-04-25 10:40 43.43177 5.22544 81 ft 10 kts 135°
2026-04-25 10:41 43.43113 5.22633 81 ft 9 kts 134°
2026-04-25 10:41 43.43069 5.22697 81 ft 9 kts 134°
2026-04-25 10:41 43.43026 5.22759 81 ft 9 kts 134°
2026-04-25 10:41 43.42984 5.22818 81 ft 8 kts 134°
2026-04-25 10:42 43.42945 5.22876 81 ft 8 kts 133°
2026-04-25 10:42 43.42907 5.22931 81 ft 8 kts 133°
2026-04-25 10:42 43.42861 5.22958 81 ft 7 kts 175°
2026-04-25 10:42 43.42817 5.22942 81 ft 6 kts 212°
2026-04-25 10:43 43.42785 5.22901 81 ft 6 kts 225°
2026-04-25 10:43 43.42758 5.22858 81 ft 6 kts 242°
2026-04-25 10:43 43.42757 5.22810 81 ft 5 kts 294°
2026-04-25 10:43 43.42761 5.22801 81 ft 0 kts 304°
2026-04-25 10:44 43.42790 5.22751 81 ft 32 kts 314°
2026-04-25 10:44 43.43142 5.22247 82 ft 113 kts 313°
2026-04-25 10:44 43.43856 5.21227 168 ft 176 kts 314°
2026-04-25 10:45 43.44682 5.19992 606 ft 172 kts 312°
2026-04-25 10:45 43.45523 5.18775 1015 ft 184 kts 313°
2026-04-25 10:45 43.46450 5.17466 1444 ft 195 kts 314°
2026-04-25 10:45 43.47333 5.16011 1870 ft 204 kts 299°
2026-04-25 10:46 43.47514 5.14121 2282 ft 203 kts 260°
2026-04-25 10:46 43.46788 5.12481 2863 ft 205 kts 224°
2026-04-25 10:46 43.45580 5.11461 3514 ft 204 kts 207°
2026-04-25 10:46 43.44248 5.10734 4076 ft 208 kts 199°
2026-04-25 10:47 43.42821 5.10180 4492 ft 220 kts 195°
2026-04-25 10:47 43.41287 5.09637 4867 ft 239 kts 195°
2026-04-25 10:47 43.39644 5.09044 5252 ft 247 kts 195°
2026-04-25 10:47 43.37948 5.08443 5637 ft 258 kts 194°
2026-04-25 10:48 43.36146 5.07853 6027 ft 271 kts 194°
2026-04-25 10:48 43.34917 5.07450 6270 ft 276 kts 194°
2026-04-25 10:48 43.33032 5.06831 6716 ft 279 kts 194°
2026-04-25 10:48 43.31132 5.06205 7403 ft 282 kts 194°
2026-04-25 10:49 43.29211 5.05571 8132 ft 286 kts 194°
2026-04-25 10:49 43.27258 5.04928 8868 ft 290 kts 194°
2026-04-25 10:49 43.25282 5.04277 9599 ft 294 kts 194°
2026-04-25 10:49 43.23291 5.03621 10311 ft 295 kts 194°
2026-04-25 10:50 43.21309 5.02862 10990 ft 296 kts 204°
2026-04-25 10:50 43.19643 5.01286 11713 ft 295 kts 225°
2026-04-25 10:50 43.18300 4.99149 12442 ft 298 kts 234°
2026-04-25 10:50 43.17018 4.96845 13028 ft 310 kts 234°
2026-04-25 10:51 43.15642 4.94470 13546 ft 325 kts 233°
2026-04-25 10:51 43.14182 4.92015 14064 ft 340 kts 232°
2026-04-25 10:51 43.12653 4.89450 14505 ft 352 kts 232°
2026-04-25 10:51 43.11082 4.86820 14939 ft 360 kts 232°
2026-04-25 10:52 43.09505 4.84183 15367 ft 364 kts 232°
2026-04-25 10:52 43.07895 4.81494 15794 ft 367 kts 232°
2026-04-25 10:52 43.06255 4.78808 16208 ft 370 kts 229°
2026-04-25 10:52 43.04244 4.76594 16633 ft 373 kts 214°
2026-04-25 10:53 43.01963 4.74857 17150 ft 378 kts 209°
2026-04-25 10:53 42.99634 4.73135 17630 ft 381 kts 210°
2026-04-25 10:53 42.97306 4.71377 18114 ft 384 kts 210°
2026-04-25 10:53 42.94955 4.69598 18598 ft 387 kts 210°
2026-04-25 10:54 42.92590 4.67808 19082 ft 390 kts 210°
2026-04-25 10:54 42.91015 4.66617 19403 ft 392 kts 210°
2026-04-25 10:54 42.87839 4.64216 20043 ft 396 kts 210°
2026-04-25 10:54 42.85413 4.62384 20533 ft 399 kts 210°
2026-04-25 10:55 42.82973 4.60543 21019 ft 402 kts 210°
2026-04-25 10:55 42.80514 4.58689 21501 ft 405 kts 210°
2026-04-25 10:55 42.78038 4.56825 21987 ft 408 kts 210°
2026-04-25 10:55 42.75543 4.54948 22474 ft 411 kts 210°
2026-04-25 10:56 42.73023 4.53053 22961 ft 414 kts 210°
2026-04-25 10:56 42.70491 4.51152 23447 ft 417 kts 210°
2026-04-25 10:56 42.67977 4.49266 23926 ft 420 kts 209°
2026-04-25 10:56 42.65406 4.47338 24412 ft 423 kts 209°
2026-04-25 10:57 42.62816 4.45399 24899 ft 426 kts 209°
2026-04-25 10:57 42.60211 4.43450 25384 ft 429 kts 209°
2026-04-25 10:57 42.57588 4.41489 25816 ft 432 kts 209°
2026-04-25 10:57 42.54944 4.39515 26163 ft 434 kts 209°
2026-04-25 10:58 42.52285 4.37531 26522 ft 435 kts 209°
2026-04-25 10:58 42.49632 4.35554 26870 ft 434 kts 209°
2026-04-25 10:58 42.46988 4.33586 27220 ft 433 kts 209°
2026-04-25 10:58 42.44351 4.31624 27568 ft 432 kts 209°
2026-04-25 10:59 42.41717 4.29667 27916 ft 431 kts 209°
2026-04-25 10:59 42.39088 4.27715 28264 ft 430 kts 209°
2026-04-25 10:59 42.36500 4.25796 28608 ft 429 kts 209°
2026-04-25 10:59 42.33880 4.23854 28954 ft 427 kts 209°
2026-04-25 11:00 42.31271 4.21923 29301 ft 426 kts 209°
2026-04-25 11:00 42.28671 4.20000 29649 ft 425 kts 209°
2026-04-25 11:00 42.26077 4.18084 29998 ft 424 kts 209°
2026-04-25 11:00 42.23483 4.16170 30344 ft 424 kts 209°
2026-04-25 11:01 42.20920 4.14280 30690 ft 423 kts 209°
2026-04-25 11:01 42.18341 4.12379 31031 ft 422 kts 209°
2026-04-25 11:01 42.15760 4.10480 31120 ft 422 kts 209°
2026-04-25 11:02 42.10615 4.06699 31128 ft 421 kts 209°
2026-04-25 11:02 42.05470 4.02924 31129 ft 421 kts 209°
2026-04-25 11:03 42.00324 3.99157 31129 ft 421 kts 209°
2026-04-25 11:03 41.95170 3.95391 31132 ft 421 kts 209°
2026-04-25 11:04 41.89755 3.92636 31142 ft 422 kts 190°
2026-04-25 11:04 41.83948 3.91410 31145 ft 422 kts 190°
2026-04-25 11:05 41.78155 3.90073 31145 ft 422 kts 190°
2026-04-25 11:05 41.72284 3.88721 31151 ft 436 kts 190°
2026-04-25 11:06 41.66246 3.87333 31027 ft 445 kts 190°
2026-04-25 11:06 41.63198 3.86634 30447 ft 445 kts 190°
2026-04-25 11:06 41.60141 3.85932 29884 ft 446 kts 190°
2026-04-25 11:06 41.57097 3.85233 29386 ft 441 kts 190°
2026-04-25 11:07 41.54092 3.84543 28865 ft 435 kts 190°
2026-04-25 11:07 41.51132 3.83864 28350 ft 428 kts 190°
2026-04-25 11:07 41.48212 3.83195 27828 ft 422 kts 190°
2026-04-25 11:07 41.45332 3.82536 27310 ft 416 kts 190°
2026-04-25 11:08 41.42489 3.81886 26793 ft 410 kts 190°
2026-04-25 11:08 41.39689 3.81246 26274 ft 405 kts 189°
2026-04-25 11:08 41.36968 3.80624 25760 ft 400 kts 189°
2026-04-25 11:08 41.34245 3.80003 25245 ft 394 kts 189°
2026-04-25 11:09 41.31551 3.79389 24728 ft 391 kts 189°
2026-04-25 11:09 41.28870 3.78778 24272 ft 391 kts 189°
2026-04-25 11:09 41.26189 3.78168 23809 ft 389 kts 189°
2026-04-25 11:09 41.23526 3.77562 23349 ft 386 kts 189°
2026-04-25 11:10 41.20892 3.76964 22886 ft 382 kts 189°
2026-04-25 11:10 41.19124 3.76562 22574 ft 381 kts 189°
2026-04-25 11:10 41.15668 3.75935 21915 ft 378 kts 180°
2026-04-25 11:10 41.13088 3.76409 21458 ft 373 kts 165°
2026-04-25 11:11 41.10593 3.77361 21006 ft 371 kts 163°
2026-04-25 11:11 41.08114 3.78298 20517 ft 369 kts 163°
2026-04-25 11:11 41.05653 3.79197 20032 ft 365 kts 163°
2026-04-25 11:11 41.03218 3.80081 19541 ft 359 kts 163°
2026-04-25 11:12 41.00825 3.80948 19049 ft 353 kts 163°
2026-04-25 11:12 40.98475 3.81798 18559 ft 347 kts 163°
2026-04-25 11:12 40.96164 3.82633 18066 ft 342 kts 163°
2026-04-25 11:12 40.93873 3.83461 17581 ft 340 kts 163°
2026-04-25 11:13 40.91595 3.84282 17099 ft 339 kts 163°
2026-04-25 11:13 40.89359 3.85088 16619 ft 337 kts 163°
2026-04-25 11:13 40.87107 3.85900 16133 ft 334 kts 163°
2026-04-25 11:13 40.84872 3.86704 15645 ft 330 kts 163°
2026-04-25 11:14 40.82671 3.87495 15150 ft 325 kts 164°
2026-04-25 11:14 40.80511 3.88272 14658 ft 319 kts 164°
2026-04-25 11:14 40.78381 3.89037 14163 ft 314 kts 164°
2026-04-25 11:14 40.76285 3.89791 13672 ft 310 kts 163°
2026-04-25 11:15 40.74211 3.90534 13180 ft 307 kts 164°
2026-04-25 11:15 40.72156 3.91271 12694 ft 305 kts 164°
2026-04-25 11:15 40.70112 3.92004 12208 ft 304 kts 164°
2026-04-25 11:15 40.68070 3.92735 11722 ft 303 kts 164°
2026-04-25 11:16 40.64065 3.94168 10866 ft 296 kts 164°
2026-04-25 11:16 40.62075 3.94880 10549 ft 296 kts 164°
2026-04-25 11:16 40.60091 3.95588 10217 ft 295 kts 164°
2026-04-25 11:17 40.58117 3.96293 9886 ft 293 kts 164°
2026-04-25 11:17 40.56155 3.96993 9556 ft 291 kts 164°
2026-04-25 11:17 40.54204 3.97688 9237 ft 289 kts 164°
2026-04-25 11:17 40.52268 3.98379 8974 ft 288 kts 164°
2026-04-25 11:18 40.50334 3.99067 8668 ft 286 kts 164°
2026-04-25 11:18 40.48430 3.99746 8345 ft 279 kts 164°
2026-04-25 11:18 40.46574 4.00405 8029 ft 273 kts 164°
2026-04-25 11:18 40.44759 4.01051 7716 ft 268 kts 164°
2026-04-25 11:19 40.42971 4.01687 7404 ft 263 kts 164°
2026-04-25 11:19 40.41234 4.02304 7097 ft 260 kts 164°
2026-04-25 11:19 40.39504 4.02918 6786 ft 256 kts 164°
2026-04-25 11:19 40.37791 4.03526 6487 ft 254 kts 164°
2026-04-25 11:20 40.36092 4.04129 6185 ft 252 kts 164°
2026-04-25 11:20 40.34401 4.04728 5884 ft 251 kts 164°
2026-04-25 11:20 40.32719 4.05324 5586 ft 250 kts 164°
2026-04-25 11:20 40.31043 4.05918 5282 ft 248 kts 164°
2026-04-25 11:21 40.29383 4.06513 5022 ft 245 kts 162°
2026-04-25 11:21 40.27849 4.07456 4991 ft 245 kts 149°
2026-04-25 11:21 40.26422 4.08687 4780 ft 245 kts 144°
2026-04-25 11:21 40.25027 4.09964 4541 ft 243 kts 144°
2026-04-25 11:22 40.23669 4.11203 4334 ft 235 kts 144°
2026-04-25 11:22 40.22774 4.12018 4168 ft 230 kts 144°
2026-04-25 11:22 40.21064 4.13577 3817 ft 222 kts 144°
2026-04-25 11:22 40.19812 4.14720 3557 ft 217 kts 144°
2026-04-25 11:23 40.18587 4.15838 3301 ft 212 kts 144°
2026-04-25 11:23 40.17387 4.16932 3051 ft 208 kts 144°
2026-04-25 11:23 40.16205 4.18011 3010 ft 208 kts 144°
2026-04-25 11:23 40.15012 4.19099 2998 ft 209 kts 144°
2026-04-25 11:24 40.13857 4.20153 2992 ft 194 kts 144°
2026-04-25 11:24 40.12800 4.21116 2953 ft 178 kts 144°
2026-04-25 11:24 40.11799 4.22026 2963 ft 174 kts 144°
2026-04-25 11:24 40.10804 4.22931 2980 ft 175 kts 144°
2026-04-25 11:25 40.09805 4.23837 2985 ft 174 kts 144°
2026-04-25 11:25 40.08825 4.24727 2988 ft 174 kts 144°
2026-04-25 11:25 40.07825 4.25622 2986 ft 174 kts 147°
2026-04-25 11:25 40.06680 4.25984 2992 ft 168 kts 175°
2026-04-25 11:26 40.05523 4.25889 2987 ft 165 kts 185°
2026-04-25 11:26 40.04386 4.25651 2988 ft 166 kts 188°
2026-04-25 11:26 40.03249 4.25397 2989 ft 166 kts 188°
2026-04-25 11:26 40.02112 4.25144 2990 ft 166 kts 188°
2026-04-25 11:27 40.00970 4.24898 2960 ft 166 kts 188°
2026-04-25 11:27 39.99802 4.24653 2771 ft 171 kts 187°
2026-04-25 11:27 39.98639 4.24411 2521 ft 167 kts 187°
2026-04-25 11:27 39.97887 4.24256 2364 ft 163 kts 187°
2026-04-25 11:28 39.96406 4.23951 2109 ft 162 kts 187°
2026-04-25 11:28 39.95284 4.23721 1913 ft 163 kts 187°
2026-04-25 11:28 39.94177 4.23494 1714 ft 154 kts 187°
2026-04-25 11:28 39.93162 4.23283 1564 ft 144 kts 187°
2026-04-25 11:29 39.92171 4.23079 1364 ft 144 kts 187°
2026-04-25 11:29 39.91188 4.22878 1134 ft 142 kts 187°
2026-04-25 11:29 39.90209 4.22677 941 ft 142 kts 187°
2026-04-25 11:29 39.89243 4.22479 754 ft 142 kts 187°
2026-04-25 11:30 39.88267 4.22278 572 ft 142 kts 187°
2026-04-25 11:30 39.87293 4.22078 377 ft 141 kts 187°
2026-04-25 11:30 39.86373 4.21887 314 ft 108 kts 187°
2026-04-25 11:30 39.85928 4.21796 314 ft 32 kts 183°
2026-04-25 11:31 39.85703 4.21751 314 ft 21 kts 189°
2026-04-25 11:31 39.85564 4.21746 314 ft 16 kts 162°
2026-04-25 11:31 39.85470 4.21803 314 ft 11 kts 148°
2026-04-25 11:31 39.85419 4.21852 314 ft 7 kts 133°
2026-04-25 11:32 39.85406 4.21909 314 ft 6 kts 65°
2026-04-25 11:32 39.85445 4.21936 314 ft 7 kts 16°
2026-04-25 11:32 39.85493 4.21947 314 ft 8 kts
2026-04-25 11:32 39.85559 4.21960 314 ft 12 kts
2026-04-25 11:33 39.85654 4.21979 314 ft 16 kts
2026-04-25 11:33 39.85757 4.22000 314 ft 16 kts
2026-04-25 11:33 39.85884 4.22025 314 ft 20 kts
2026-04-25 11:33 39.86020 4.22055 314 ft 20 kts 10°
2026-04-25 11:34 39.86131 4.22079 314 ft 17 kts
2026-04-25 11:34 39.86230 4.22100 314 ft 16 kts
2026-04-25 11:34 39.86342 4.22123 314 ft 16 kts
2026-04-25 11:34 39.86432 4.22141 314 ft 13 kts
2026-04-25 11:35 39.86502 4.22156 314 ft 10 kts
2026-04-25 11:35 39.86544 4.22216 314 ft 8 kts 89°
2026-04-25 11:35 39.86542 4.22253 314 ft 5 kts 99°
2026-04-25 11:35 39.86515 4.22299 314 ft 7 kts 159°
2026-04-25 11:36 39.86482 4.22331 314 ft 7 kts 110°
2026-04-25 11:36 39.86471 4.22382 314 ft 8 kts 102°
2026-04-25 11:36 39.86468 4.22416 314 ft 4 kts 93°
2026-04-25 11:36 39.86467 4.22424 314 ft 0 kts 93°
2026-04-25 11:37 39.86467 4.22425 314 ft 0 kts 93°